TOURFACTS.DK  
Stats and Facts from Tour de France.

Tour de France 2018 starts in 12 days
  Riders   Stages   Teams   Summits   Yearly  


 
Search by year

After 2017 - Stage 21:
 14824 starters.
  5132 different riders.
  639 teams.
  2232 stages.
  456 restdays.
  439589.60 km.
  5653 abandonnees.


Top 3
GC
Christopher Froome86:20:55
Rigoberto Urán86:21:49
Romain Bardet86:23:15
Climb
Warren Barguil169 pt.
Primoz Roglic80 pt.
Thomas De Gendt64 pt.
Sprint
Michael Matthews359 pt.
André Greipel234 pt.
Edvald Boasson Hagen220 pt.
Youth
Simon Yates86:27:09
Louis Meintjes86:29:15
Emanuel Buchmann86:54:16
Facts from Tour de France 1949
  |   Stages.  |   Stage winners.  |   Days in yellow  |   Average speed.  |   Route.  |   Teams.  |   All riders.  |   Rookies.  |  

  |   Withdrawls.  |   GC.  |   Polka  |   Green  |   White  |   Summits. (In tour)  |   Miscellaneous.  |  

Stage 4 on 03 - 07 - 1949
         Owning:    Jacques Marinelli    
Pick a stage:  1 2 3 4 5 6 7 8 9 10 11 12 13 14 15 16 17 18 19 20 21
  Boulogne-sur-MerRouen | Dist: 185.00 km.

Average speed for all riders in stage:  34,170 km./hr.
    Place:Name:Team:Time:Km/h:
FRALucien TeisseireFRAFrance05:10:04  +  00:00:00=35,799 
FRAJacques MarinelliFRAIle De France05:10:04  +  00:00:00=35,799 
FRAMaurice DiotFRAFrance05:11:46  +  00:01:42=35,604 
4 ITAMario RicciITAItaly05:13:50  +  00:03:46=35,369 
5 FRAEdouard MullerFRAIle De France05:13:50  +  00:03:46=35,369 
6 FRAEmile IdéeFRAIle De France05:13:50  +  00:03:46=35,369 
7 ITAAttilio RedolfiFRAIle De France05:13:50  +  00:03:46=35,369 
8 FRARobert ChapatteFRAFrance05:13:50  +  00:03:46=35,369 
9 ITAÉdouard FachleitnerFRASouth-East05:13:50  +  00:03:46=35,369 
10 FRARobert DesbatsFRACenter-South West05:13:50  +  00:03:46=35,369 
11 ITAVittorio MagniITACadetti Italiens05:13:50  +  00:03:46=35,369 
12 FRAAndre MahéFRAWest-North05:14:11  +  00:04:07=35,330 
13 FRAGuy LapébieFRAFrance05:15:01  +  00:04:57=35,236 
14 BELRoger LambrechtBELBelgium05:19:41  +  00:09:37=34,722 
15 ITAGiuseppe AusendaITACadetti Italiens05:20:27  +  00:10:23=34,639 
16 FRAMarcel DussaultFRACenter-South West05:22:28  +  00:12:24=34,422 
17 FRACamille DanguillaumeFRAFrance05:22:56  +  00:12:52=34,372 
18 SUIFerdi KüblerCHESwitzerland05:23:02  +  00:12:58=34,362 
19 ITAGino SciardisITAItaly05:23:02  +  00:12:58=34,362 
20 BELStan OckersBELBelgium05:23:02  +  00:12:58=34,362 
21 BELRik Van SteenbergenBELBelgium05:23:02  +  00:12:58=34,362 
22 LUXMarcel ErnzerLUXLuxembourg05:23:02  +  00:12:58=34,362 
23 BELJoseph VerhaertBELAiglons Belges05:23:02  +  00:12:58=34,362 
24 BELMarcel HendrickxBELAiglons Belges05:23:02  +  00:12:58=34,362 
25 BELMarcel DupontBELAiglons Belges05:23:02  +  00:12:58=34,362 
26 FRAPierre MolinerisFRASouth-East05:23:02  +  00:12:58=34,362 
27 BELMarcel De MulderBELAiglons Belges05:23:02  +  00:12:58=34,362 
28 ITAArmando PeverelliITACadetti Italiens05:23:02  +  00:12:58=34,362 
29 ITASylvio PedroniITACadetti Italiens05:23:02  +  00:12:58=34,362 
30 ITAAlfredo MartiniITACadetti Italiens05:23:02  +  00:12:58=34,362 
31 FRAHenri MassalFRACenter-South West05:23:02  +  00:12:58=34,362 
32 FRAAndré BruléFRAIle De France05:23:02  +  00:12:58=34,362 
33 FRALouis CaputFRAIle De France05:23:02  +  00:12:58=34,362 
34 FRAAlbert DolhatsFRACenter-South West05:23:02  +  00:12:58=34,362 
35 SUIPierre BrambillaFRASouth-East05:23:02  +  00:12:58=34,362 
36 FRARoger PontetFRAWest-North05:23:02  +  00:12:58=34,362 
37 FRAAntonin RollandFRASouth-East05:23:02  +  00:12:58=34,362 
38 FRAJean-Marie GoasmatFRAWest-North05:23:02  +  00:12:58=34,362 
39 FRARoger LevequeFRACenter-South West05:23:02  +  00:12:58=34,362 
40 ITAGiuseppe TaccaFRAIle De France05:23:02  +  00:12:58=34,362 
41 FRAGeorges RamouluxFRACenter-South West05:23:02  +  00:12:58=34,362 
42 ITAFermo CamelliniFRASouth-East05:23:02  +  00:12:58=34,362 
43 FRARaymond LucasFRAIle De France05:23:02  +  00:12:58=34,362 
44 FRAGeorges MartinFRASouth-East05:23:02  +  00:12:58=34,362 
45 FRAPierre CoganFRAWest-North05:23:02  +  00:12:58=34,362 
46 FRADominique ForliniFRAIle De France05:23:02  +  00:12:58=34,362 
47 NEDWim De RuyterNLDHolland05:23:02  +  00:12:58=34,362 
48 BELRaymond ImpanisBELBelgium05:23:02  +  00:12:58=34,362 
49 BELMarcel KintBELBelgium05:23:02  +  00:12:58=34,362 
50 BELRoger GhyselinckBELBelgium05:23:02  +  00:12:58=34,362 
51 SUIGeorges AeschlimannCHESwitzerland05:23:02  +  00:12:58=34,362 
52 FRARené ViettoFRAFrance05:23:02  +  00:12:58=34,362 
53 FRALucien LazaridesFRAFrance05:23:02  +  00:12:58=34,362 
54 FRAJean-Apotre LazaridesFRAFrance05:23:02  +  00:12:58=34,362 
55 FRARaphaël GeminianiFRAFrance05:23:02  +  00:12:58=34,362 
56 FRABernard GauthierFRAFrance05:23:02  +  00:12:58=34,362 
57 FRALouis DeprezFRAFrance05:23:02  +  00:12:58=34,362 
58 ITAGino BartaliITAItaly05:23:02  +  00:12:58=34,362 
59 BELEdward Van DijckBELBelgium05:23:02  +  00:12:58=34,362 
60 BELBriek SchotteBELBelgium05:23:02  +  00:12:58=34,362 
61 BELNorbert CallensBELBelgium05:23:02  +  00:12:58=34,362 
62 BELJacques GeusBELAiglons Belges05:23:02  +  00:12:58=34,362 
63 ITASerifano BiagioniITAItaly05:23:02  +  00:12:58=34,362 
64 ITAFausto CoppiITAItaly05:23:02  +  00:12:58=34,362 
65 ITAEttore MilanoITAItaly05:23:02  +  00:12:58=34,362 
66 NEDHenk de HoogNLDHolland05:23:02  +  00:12:58=34,362 
67 ITABruno PasquiniITAItaly05:23:02  +  00:12:58=34,362 
68 ITALuciano PezziITAItaly05:23:02  +  00:12:58=34,362 
69 BELFlorent MathieuBELBelgium05:23:02  +  00:12:58=34,362 
70 ITAVincenzo RosselloITAItaly05:23:02  +  00:12:58=34,362 
71 LUXJean KirchenLUXLuxembourg05:23:02  +  00:12:58=34,362 
72 LUXJean GoldschmitLUXLuxembourg05:23:02  +  00:12:58=34,362 
73 LUXJean DiederichLUXLuxembourg05:23:02  +  00:12:58=34,362 
74 SUIGottfried WeilenmannCHESwitzerland05:23:02  +  00:12:58=34,362 
75 FRALouison BobetFRAFrance05:23:30  +  00:13:26=34,312 
76 FRAAnge Le StratFRAWest-North05:23:30  +  00:13:26=34,312 
77 NEDAndré De KorverNLDHolland05:23:30  +  00:13:26=34,312 
78 FRAJean RobicFRAWest-North05:24:43  +  00:14:39=34,184 
79 FRARoger Le NizerhyFRAWest-North05:24:43  +  00:14:39=34,184 
80 FRAJean ReyFRASouth-East05:28:02  +  00:17:58=33,838 
81 ITANello LaurediFRASouth-East05:28:12  +  00:18:08=33,821 
82 MARCustodio Dos ReisFRACenter-South West05:32:10  +  00:22:06=33,417 
83 FRAJean BlancFRACenter-South West05:32:10  +  00:22:06=33,417 
84 BELDésiré KeteleerBELBelgium05:33:58  +  00:23:54=33,237 
85 SUIErnst StettlerCHESwitzerland05:33:58  +  00:23:54=33,237 
86 SUIHans HutmacherCHESwitzerland05:34:10  +  00:24:06=33,217 
87 SUIRoger AeschlimannCHESwitzerland05:34:10  +  00:24:06=33,217 
88 FRAPaul PineauFRACenter-South West05:38:04  +  00:28:00=32,834 
89 ESPJulián BerrenderoESPSpain05:38:04  +  00:28:00=32,834 
90 ESPDalmácio LangaricaESPSpain05:38:04  +  00:28:00=32,834 
91 ESPEmilio RodriguezESPSpain05:38:04  +  00:28:00=32,834 
92 ESPJosé SerraESPSpain05:38:04  +  00:28:00=32,834 
93 ITAAdolphe DeleddaFRASouth-East05:38:04  +  00:28:00=32,834 
94 NEDJan LambrichsNLDHolland05:38:12  +  00:28:08=32,821 
95 ITAAngelo BrignoleITAItaly05:38:12  +  00:28:08=32,821 
96 NEDFrans PauwelsNLDHolland05:38:12  +  00:28:08=32,821 
97 ITAGiovanni CorrieriITAItaly05:38:12  +  00:28:08=32,821 
98 NEDHuub SijenNLDHolland05:38:12  +  00:28:08=32,821 
99 ESPBernardo RuízESPSpain05:38:12  +  00:28:08=32,821 
100 ITAGuido De SantiITAItaly05:38:33  +  00:28:29=32,787 
101 FRAPaul GiguetFRASouth-East05:38:33  +  00:28:29=32,787 
102 GEREdouard KlabinskiFRAWest-North05:38:33  +  00:28:29=32,787 
103 GERCésar MarcelakFRAWest-North05:38:33  +  00:28:29=32,787 

Withdrawls: 10
 
Rider
Team
Reason
16  BELLeon JomauxBELBelgiumDid not finish
43  LUXRené BieverLUXLuxembourgDid not finish
62  ITAGiuseppe CeramiITACadetti ItaliensDid not finish
67  BELJean BreuerBELAiglons BelgesDid not finish
77  FRAGeorges GuillierFRAIle De FranceDid not finish
84  FRALouis ThiétardFRAIle De FranceDid not finish
90  BELLucien MaelfaitFRAWest-NorthDid not finish
93  FRAFrançois PersonFRAWest-NorthDid not finish
96  FRAEloi TassinFRAWest-NorthDid not finish
119  FRARaoul RemyFRASouth-EastDid not finish

Todays birthdays.

1875  Jules Sales
1888  Leon Lannoy
1922  Henri Surbatis
1932  Ferdinand Devèze
1939  Dieter Puschel
1961  Gerhard Zadrobilek
1964  Javier Duch
1965  Clarence Knickman
1968  Michael Sandstød
1986  Simon Spilak




Visits: